Weather History for Kaiser, MO

Change the Weather History Date:

Sunday, May 12, 2013

  Actual Average Record
Temperature  
Mean Temperature 48 °F -  
Max Temperature 64 °F 73 °F 89 °F (2005)
Min Temperature 33 °F 51 °F 33 °F (2013)
Degree Days  
Heating Degree Days 16    
Moisture  
Dew Point 29 °F    
Average Humidity 50    
Maximum Humidity 93    
Minimum Humidity 22    
Precipitation  
Precipitation 0.00 in - - ()
Sea Level Pressure  
Sea Level Pressure 30.23 in    
Wind  
Wind Speed 3 mph (NNW)    
Max Wind Speed 13 mph    
Max Gust Speed 18 mph    
Visibility 10 miles    
Events      
Averages and records for this station are not official NWS values.
T = Trace of Precipitation, MM = Missing Value Source: NWS Daily Summary

Daily Weather History Graph

Daily Weather History Graph

Search for Another Location

Airport:

Trip Planner

Search our weather history database for the weather conditions in past years. The results will help you decide how hot, cold, wet, or windy it might be!

Date:

Astronomy

May. 12, 2013 Rise Set
Actual Time 6:02 AM CDT 8:11 PM CDT
Civil Twilight 5:32 AM CDT 8:41 PM CDT
Nautical Twilight 4:56 AM CDT 9:17 PM CDT
Astronomical Twilight 4:17 AM CDT 9:56 PM CDT
Moon 7:58 AM CDT (5/12) 10:38 PM CDT (5/12)
Length of Visible Light 15h 08m
Length of Day
14h 09m
Waxing Crescent, 7% of the Moon is Illuminated
May 12
Waxing Crescent
May 17
First Quarter
May 24
Full
May 31
Last Quarter
Jun 8
New

Hourly Weather History & Observations

Time (CDT) Temp. Windchill Dew Point Humidity Pressure Visibility Wind Dir Wind Speed Gust Speed Precip Events Conditions
12:15 AM 48.2 °F - 28.4 °F 46% 30.22 in 10.0 mi NNE 3.5 mph - N/A   Clear
12:35 AM 46.4 °F 44.3 °F 30.2 °F 53% 30.22 in 10.0 mi North 4.6 mph - N/A   Clear
12:55 AM 44.6 °F 43.1 °F 32.0 °F 61% 30.23 in 10.0 mi North 3.5 mph - N/A   Clear
1:15 AM 42.8 °F 41.1 °F 30.2 °F 61% 30.23 in 10.0 mi North 3.5 mph - N/A   Clear
1:35 AM 42.8 °F 40.1 °F 32.0 °F 66% 30.23 in 10.0 mi North 4.6 mph - N/A   Clear
1:55 AM 42.8 °F - 30.2 °F 61% 30.23 in 10.0 mi Calm Calm - N/A   Clear
2:15 AM 39.2 °F - 32.0 °F 75% 30.23 in 10.0 mi Calm Calm - N/A   Clear
2:35 AM 39.2 °F - 32.0 °F 75% 30.23 in 10.0 mi Calm Calm - N/A   Clear
2:55 AM 37.4 °F - 32.0 °F 81% 30.23 in 10.0 mi Calm Calm - N/A   Clear
3:15 AM 37.4 °F - 30.2 °F 75% 30.23 in 10.0 mi Calm Calm - N/A   Clear
3:35 AM 35.6 °F - 30.2 °F 81% 30.23 in 10.0 mi Calm Calm - N/A   Clear
3:55 AM 35.6 °F - 32.0 °F 87% 30.23 in 10.0 mi Calm Calm - N/A   Clear
4:35 AM 35.6 °F - 32.0 °F 87% 30.23 in 10.0 mi Calm Calm - N/A   Clear
4:55 AM 35.6 °F - 30.2 °F 81% 30.24 in 10.0 mi Calm Calm - N/A   Clear
5:15 AM 35.6 °F - 32.0 °F 87% 30.24 in 10.0 mi Calm Calm - N/A   Clear
5:35 AM 33.8 °F - 30.2 °F 87% 30.24 in 10.0 mi Calm Calm - N/A   Clear
5:55 AM 33.8 °F - 30.2 °F 87% 30.24 in 10.0 mi Calm Calm - N/A   Clear
6:15 AM 33.8 °F - 30.2 °F 87% 30.25 in 10.0 mi Calm Calm - N/A   Clear
6:35 AM 33.8 °F - 30.2 °F 87% 30.25 in 10.0 mi Calm Calm - N/A   Clear
6:55 AM 35.6 °F - 33.8 °F 93% 30.25 in 10.0 mi Calm Calm - N/A   Clear
7:15 AM 37.4 °F - 33.8 °F 87% 30.26 in 10.0 mi Calm Calm - N/A   Clear
7:35 AM 39.2 °F - 35.6 °F 87% 30.27 in 10.0 mi Calm Calm - N/A   Clear
7:55 AM 42.8 °F 41.1 °F 37.4 °F 81% 30.27 in 10.0 mi West 3.5 mph - N/A   Clear
8:15 AM 46.4 °F 45.2 °F 37.4 °F 71% 30.28 in 10.0 mi WNW 3.5 mph - N/A   Clear
8:35 AM 48.2 °F - 39.2 °F 71% 30.29 in 10.0 mi West 3.5 mph - N/A   Clear
8:55 AM 51.8 °F - 33.8 °F 50% 30.29 in 10.0 mi Calm Calm - N/A   Clear
9:15 AM 51.8 °F - 26.6 °F 38% 30.29 in 10.0 mi NNE 5.8 mph - N/A   Clear
9:35 AM 53.6 °F - 24.8 °F 33% 30.30 in 10.0 mi WNW 4.6 mph - N/A   Clear
9:55 AM 53.6 °F - 24.8 °F 33% 30.29 in 10.0 mi North 3.5 mph - N/A   Clear
10:15 AM 55.4 °F - 23.0 °F 29% 30.28 in 10.0 mi North 8.1 mph - N/A   Clear
10:35 AM 55.4 °F - 24.8 °F 31% 30.28 in 10.0 mi NW 6.9 mph - N/A   Clear
10:55 AM 55.4 °F - 24.8 °F 31% 30.28 in 10.0 mi North 6.9 mph - N/A   Clear
11:15 AM 57.2 °F - 24.8 °F 29% 30.28 in 10.0 mi NE 4.6 mph - N/A   Clear
11:35 AM 57.2 °F - 24.8 °F 29% 30.28 in 10.0 mi WSW 6.9 mph - N/A   Clear
11:55 AM 57.2 °F - 24.8 °F 29% 30.28 in 10.0 mi Calm Calm - N/A   Clear
12:15 PM 59.0 °F - 26.6 °F 29% 30.27 in 10.0 mi NNW 6.9 mph - N/A   Clear
12:35 PM 59.0 °F - 24.8 °F 27% 30.26 in 10.0 mi SW 5.8 mph - N/A   Clear
12:55 PM 60.8 °F - 24.8 °F 25% 30.26 in 10.0 mi WNW 4.6 mph - N/A   Clear
1:15 PM 60.8 °F - 24.8 °F 25% 30.25 in 10.0 mi NW 5.8 mph - N/A   Clear
1:35 PM 60.8 °F - 23.0 °F 23% 30.25 in 10.0 mi WNW 10.4 mph 18.4 mph N/A   Clear
1:55 PM 60.8 °F - 24.8 °F 25% 30.24 in 10.0 mi West 8.1 mph - N/A   Clear
2:15 PM 62.6 °F - 23.0 °F 22% 30.23 in 10.0 mi West 12.7 mph 18.4 mph N/A   Clear
2:35 PM 62.6 °F - 26.6 °F 26% 30.23 in 10.0 mi NW 10.4 mph 17.3 mph N/A   Clear
2:55 PM 62.6 °F - 24.8 °F 24% 30.22 in 10.0 mi North 6.9 mph - N/A   Clear
3:15 PM 62.6 °F - 26.6 °F 26% 30.21 in 10.0 mi NW 5.8 mph - N/A   Clear
3:35 PM 62.6 °F - 24.8 °F 24% 30.20 in 10.0 mi NNW 11.5 mph - N/A   Clear
3:55 PM 62.6 °F - 24.8 °F 24% 30.20 in 10.0 mi WNW 9.2 mph - N/A   Clear
4:15 PM 62.6 °F - 24.8 °F 24% 30.19 in 10.0 mi Calm Calm - N/A   Clear
4:35 PM 62.6 °F - 24.8 °F 24% 30.19 in 10.0 mi NW 4.6 mph - N/A   Clear
4:55 PM 62.6 °F - 26.6 °F 26% 30.19 in 10.0 mi NW 4.6 mph - N/A   Clear
5:15 PM 62.6 °F - 23.0 °F 22% 30.18 in 10.0 mi WNW 6.9 mph - N/A   Clear
5:35 PM 64.4 °F - 24.8 °F 22% 30.18 in 10.0 mi NNW 5.8 mph - N/A   Clear
5:55 PM 64.4 °F - 26.6 °F 24% 30.18 in 10.0 mi North 3.5 mph - N/A   Clear
6:15 PM 62.6 °F - 26.6 °F 26% 30.17 in 10.0 mi Calm Calm - N/A   Clear
6:35 PM 62.6 °F - 26.6 °F 26% 30.16 in 10.0 mi NW 6.9 mph - N/A   Clear
6:55 PM 62.6 °F - 26.6 °F 26% 30.17 in 10.0 mi North 4.6 mph - N/A   Clear
7:15 PM 60.8 °F - 26.6 °F 27% 30.17 in 10.0 mi North 4.6 mph - N/A   Clear
7:35 PM 60.8 °F - 28.4 °F 29% 30.17 in 10.0 mi NNE 3.5 mph - N/A   Clear
7:55 PM 57.2 °F - 28.4 °F 33% 30.17 in 10.0 mi NNE 3.5 mph - N/A   Clear
8:15 PM 53.6 °F - 30.2 °F 41% 30.17 in 10.0 mi NNE 4.6 mph - N/A   Clear
8:35 PM 51.8 °F - 33.8 °F 50% 30.18 in 10.0 mi NNE 3.5 mph - N/A   Clear
8:55 PM 50.0 °F - 33.8 °F 54% 30.18 in 10.0 mi Calm Calm - N/A   Clear
9:15 PM 48.2 °F - 33.8 °F 58% 30.19 in 10.0 mi Calm Calm - N/A   Scattered Clouds
9:35 PM 48.2 °F - 33.8 °F 58% 30.19 in 10.0 mi Calm Calm - N/A   Scattered Clouds
9:55 PM 48.2 °F - 33.8 °F 58% 30.20 in 10.0 mi Calm Calm - N/A   Mostly Cloudy
10:15 PM 46.4 °F - 35.6 °F 66% 30.20 in 10.0 mi Calm Calm - N/A   Mostly Cloudy
10:35 PM 48.2 °F - 33.8 °F 58% 30.20 in 10.0 mi Calm Calm - N/A   Scattered Clouds
10:55 PM 46.4 °F - 35.6 °F 66% 30.20 in 10.0 mi Calm Calm - N/A   Scattered Clouds
11:15 PM 46.4 °F - 35.6 °F 66% 30.20 in 10.0 mi Calm Calm - N/A   Scattered Clouds
11:35 PM 44.6 °F - 35.6 °F 71% 30.20 in 10.0 mi Calm Calm - N/A   Mostly Cloudy
11:55 PM 46.4 °F - 37.4 °F 71% 30.20 in 10.0 mi Calm Calm - N/A   Overcast